Location: Spruce Knob
(38.6995°N, 79.5330°W)
Time: 12:56:36
(UTC-04:00)

MOZHAYETS 4 - Pass Details

Date: 03 June 2024
Orbit: 652 x 670 km, 98.3° (Epoch: 14 June)

Event Time Altitude Azimuth Distance (km) Brightness Sun altitude
Rises 05:15:12 0° 185° (S) 2,976 10.7 -7.2°
Reaches altitude 10° 05:17:33 10° 194° (SSW) 2,066 9.8 -6.9°
Maximum altitude 05:21:44 37° 262° (W) 1,017 8.3 -6.2°
Drops below altitude 10° 05:25:56 10° 330° (NNW) 2,070 10.3 -5.5°
Sets 05:28:17 0° 338° (NNW) 2,983 11.2 -5.1°
